Location: *
(33.8649°S, 62.1526°E)
Time: 04:38:11
(UTC+00:00)

OAO 2 Rocket - Pass Details

Date: 17 January 2021
Orbit: 676 x 745 km, 35.0° (Epoch: 27 February)

Event Time Altitude Azimuth Distance (km) Brightness Sun altitude
Rises 15:34:17 0° 264° (W) 3,191 8.1 -6.3°
Reaches altitude 10° 15:36:46 10° 263° (W) 2,264 7.2 -6.7°
Maximum altitude 15:42:07 81° 175° (S) 755 3.5 -7.7°
Drops below altitude 10° 15:47:24 10° 87° (E) 2,231 5.4 -8.6°
Enters shadow 15:48:00 - 86° (E) 2,451 5.6 -8.7°
